Kingston, Jamaica

6:56 PM EST on June 21, 2018 (GMT -0500)
Norman Manley International

Weather History for MKJP - September, 2017

Change the Weather History Date:

Wednesday, September 13, 2017

  Actual Average Record
Temperature  
Mean Temperature 82 °F -  
Max Temperature 92 °F 87 °F 93 °F (2002)
Min Temperature 73 °F 78 °F 73 °F (2017)
Cooling Degree Days 18    
Growing Degree Days 32 (Base 50)    
Moisture  
Dew Point 76 °F    
Average Humidity 71    
Maximum Humidity 79    
Minimum Humidity 55    
Precipitation  
Precipitation 0.00 in - - ()
Sea Level Pressure  
Sea Level Pressure 29.89 in    
Wind  
Wind Speed 7 mph ()    
Max Wind Speed 10 mph    
Max Gust Speed -    
Visibility 8.0 miles    
Events Rain , Thunderstorm    
Averages and records for this station are not official NWS values.
T = Trace of Precipitation, MM = Missing Value Source: Averaged Metar Reports

Daily Weather History Graph

Daily Weather History Graph

Search for Another Location

Airport or City:

Astronomy

Sep. 13, 2017 Rise Set
Actual Time 5:54 AM EST 6:10 PM EST
Civil Twilight 5:32 AM EST 6:32 PM EST
Nautical Twilight 5:07 AM EST 6:57 PM EST
Astronomical Twilight 4:42 AM EST 7:23 PM EST
Moon No Moon Rise 12:49 PM EST (9/13)
Length of Visible Light 12h 59m
Length of Day
12h 16m
Last Quarter, 45% of the Moon is Illuminated
Sep 13
Last Quarter
Sep 20
New
Sep 27
First Quarter
Oct 5
Full
Oct 12
Last Quarter

Hourly Weather History & Observations

Time (EST) Temp. Heat Index Dew Point Humidity Pressure Visibility Wind Dir Wind Speed Gust Speed Precip Events Conditions
12:00 AM 84.2 °F 94.1 °F 77.0 °F 79% 29.92 in 6.2 mi North 10.4 mph - N/A   Partly Cloudy
1:00 AM 84 °F - 77 °F 73% 29.89 in 14 mi NNE 8.1 mph - -   Haze
1:00 AM 84.2 °F 94.1 °F 77.0 °F 79% 29.89 in 6.2 mi NNE 8.1 mph - N/A   Partly Cloudy
2:00 AM 84.2 °F 92.3 °F 75.2 °F 74% 29.86 in 6.2 mi NNE 4.6 mph - N/A   Partly Cloudy
3:00 AM 82.4 °F 89.5 °F 75.2 °F 79% 29.86 in 6.2 mi NNW 9.2 mph - N/A   Partly Cloudy
4:00 AM 83 °F - 76 °F 73% 29.87 in 14 mi North 4.6 mph - -   Haze
4:00 AM 82.4 °F 89.5 °F 75.2 °F 79% 29.86 in 6.2 mi North 4.6 mph - N/A   Partly Cloudy
5:00 AM 84.2 °F 92.3 °F 75.2 °F 74% 29.86 in 6.2 mi North 6.9 mph - N/A   Partly Cloudy
6:00 AM 84.2 °F 92.3 °F 75.2 °F 74% 29.89 in 6.2 mi North 8.1 mph - N/A   Partly Cloudy
7:00 AM 83 °F - 76 °F 74% 29.92 in 16 mi North 8.1 mph - -   Haze
7:00 AM 84.2 °F 92.3 °F 75.2 °F 74% 29.92 in 6.2 mi North 8.1 mph - N/A   Partly Cloudy
8:00 AM 86.0 °F 95.1 °F 75.2 °F 70% 29.92 in 6.2 mi NNW 5.8 mph - N/A   Partly Cloudy
9:00 AM 86.0 °F 95.1 °F 75.2 °F 70% 29.89 in 6.2 mi NW 5.8 mph - N/A   Partly Cloudy
10:00 AM 89 °F - 76 °F 57% 29.95 in 15 mi NNW 5.8 mph - -   Haze
10:00 AM 89.6 °F 99.8 °F 75.2 °F 62% 29.95 in 6.2 mi NNW 5.8 mph - N/A   Partly Cloudy
11:00 AM 89.6 °F 98.2 °F 73.4 °F 59% 29.92 in 6.2 mi SW 8.1 mph - N/A   Partly Cloudy
12:00 PM 87.8 °F 97.6 °F 75.2 °F 66% 29.92 in 6.2 mi SSW 9.2 mph - N/A   Partly Cloudy
1:00 PM 91 °F - 77 °F 55% 29.90 in 15 mi SSW 10.4 mph - -   Haze
1:00 PM 91.4 °F 105.1 °F 77.0 °F 63% 29.89 in 6.2 mi SSW 10.4 mph - N/A   Partly Cloudy
1:45 PM 89.6 °F 99.8 °F 75.2 °F 62% 29.89 in 6.2 mi South 10.4 mph - N/A Thunderstorm Thunderstorm
2:00 PM 89.6 °F 102.2 °F 77.0 °F 66% 29.86 in 6.2 mi South 10.4 mph - N/A Thunderstorm Thunderstorm
3:00 PM 87.8 °F 99.7 °F 77.0 °F 70% 29.86 in 6.2 mi SSE 9.2 mph - N/A Thunderstorm Thunderstorm
3:34 PM 87.8 °F 99.7 °F 77.0 °F 70% 29.86 in 6.2 mi SSE 8.1 mph - N/A Rain Light Rain Showers
4:00 PM 88 °F - 77 °F 63% 29.88 in 14 mi SSE 8.1 mph - - Rain Light Rain Showers
4:00 PM 87.8 °F 99.7 °F 77.0 °F 70% 29.86 in 6.2 mi SSE 8.1 mph - N/A Rain Light Rain Showers
5:00 PM 87.8 °F 99.7 °F 77.0 °F 70% 29.86 in 6.2 mi SSE 8.1 mph - N/A   Partly Cloudy
6:00 PM 87.8 °F 99.7 °F 77.0 °F 70% 29.86 in 6.2 mi SSE 8.1 mph - N/A   Partly Cloudy
7:00 PM 86 °F - 78 °F 71% 29.90 in 12 mi South 5.8 mph - -   Haze
7:00 PM 86.0 °F 99.3 °F 78.8 °F 79% 29.89 in 6.2 mi South 5.8 mph - N/A   Partly Cloudy
8:00 PM 84.2 °F 94.1 °F 77.0 °F 79% 29.92 in 6.2 mi NW 6.9 mph - N/A   Partly Cloudy
9:00 PM 84.2 °F 94.1 °F 77.0 °F 79% 29.92 in 6.2 mi NNW 8.1 mph - N/A   Partly Cloudy
10:00 PM 84 °F - 76 °F 71% 29.93 in 12 mi North 8.1 mph - -   Haze
10:00 PM 84.2 °F 92.3 °F 75.2 °F 74% 29.92 in 6.2 mi North 8.1 mph - N/A   Partly Cloudy
11:00 PM 84.2 °F 94.1 °F 77.0 °F 79% 29.92 in 6.2 mi ESE 5.8 mph - N/A   Partly Cloudy